STARLINK-6265, 56557

Orbit data source: Space-Track

STARLINK-6265, 56557 is a payload satellite owned by SpaceX/Seattle (US) in LEO that was launched on Sun, 14 May 2023 UTC via an FALCON 9 launch vehicle from the Air Force Eastern Test Range (AFETR). Payload-class satellites include a variety of spacecraft equipped with specific instruments for various scientific and technological missions. These include communications satellites like Starlink; space stations such as the ISS; scientific satellites like the Hubble; Earth observation satellites from companies like Planet Labs, Umbra, and HawkEye 360; GPS; miniature CubeSats for education and research; and military/defense satellites.

Loading next visibility...
Identifier
56557, 2023-065BG
Orbit
LEO
Country
Flag of USUS
Related business
Manufacturer
SpaceX/Seattle
Mission
Operational Commercial Communications
Bus & Motor
STARLINK, Unknown motor
Mass
305 kg wet, ~290 kg dry
Launch date (UTC)
2023-05-14 (3 years ago)
Launch vehicle
FALCON 9
Launch site
Air Force Eastern Test Range (AFETR)
Object type
Payload
Rocket body
Debris
Shape & HBR
Box + 1 Pan, 10.1 m
Radar Cross Section
11.087 m², Large (>1 m²)

Expand to show TLE details & history
Last TLE update: 3 days ago

TLE from 3 days ago
0 STARLINK-6265
1 56557U 23065BG  26170.24614295  .00000339  00000-0  21850-4 0  9998
2 56557  43.0048  10.0609 0001919 265.8142  94.2490 15.27579222172003
Epoch: 2026-06-19T05:54Z
TLE epoch observation values (Epoch: 2026-06-19T05:54:26.750Z)
Latitude
-0.00006°
Longitude
13.9715°
Altitude
482.925 km
Speed
7.626 km/s
True Right ascension
00h 40m 14s
True Declination
0° 00' 00"
Sunlit
Object was in daylight at epoch
Visualization orbit readout
Latitude
Unknown
Longitude
Unknown
Altitude
Unknown
Speed
Unknown
Apparent Right ascension
Unknown
Apparent Declination
Unknown
Sunlit
N/A
Visualization observer readout
Local Sidereal Time
21:29:46
Azimuth
Unknown
Elevation
Unknown
Doppler factor
Unknown
Orbital elements
Apogee altitude
486.313 km
Perigee altitude
483.679 km
Semi-major axis
6,863.133 km
Eccentricity
0.00019
Inclination
43.0048°
RAAN
10.0609°
Arg. of periapsis
265.8142°
True anomaly
94.27093°
Mean anomaly
94.249°
Eccentric anomaly
94.25996°
Mean motion
3.81733 °/min
Orbital period
94.31 mins
BSTAR
0.00002185
Loading maneuver chart data...
Computing Atmospheric mass density...
Loading historical data...
Loading historical data...
Loading historical data...
Loading historical data...
Loading historical data...
Loading historical data...
Loading historical data...

Documentation

Showing up to 5 results
|